Volver al catálogo

ARIANE 5 R/B

ActivoHEO
NORAD 49335·ROCKET BODY·🇫🇷 France

Lanzado Oct 24, 2021 desde Guiana Space Centre

Loading…

Próximos Pases (próximas 24 horas)

TLE

ActualizadoSource: Space-Track

Época: Sep 14, 2026, 04:34 UTC

1 49335U 21095D   26257.19051862  .00005779  00000-0  11289-2 0  9996
2 49335   5.5226 175.1053 7059741 325.9133   4.4724  2.57023417 43590

Sigue ARIANE 5 R/B en tiempo real con AllMySat

Download on the App Store